,,Stat1,,Stat2,,Stat3,,Stat4,,Wind1,,Wind1,
time,status,PR1M_SUM,status,RH1M_AVG,status,SR1M_AVG,status,TA1M_AVG,status,W1dAve1m,status,W1sAve1m,
1999-10-25, 00:01:00,VALID,0,VALID,99.0694,VALID,-0.0849042,VALID,18.096,VALID,93,VALID,1.6795,
1999-10-25, 00:02:00,VALID,0,VALID,99.0198,VALID,-0.0509425,VALID,18.0731,VALID,75,VALID,1.59856,
1999-10-25, 00:03:00,VALID,0,VALID,98.852,VALID,-0.0509425,VALID,18.0694,VALID,75,VALID,0.650641,
1999-10-25, 00:04:00,VALID,0,VALID,98.7719,VALID,-0.0509425,VALID,18.0761,VALID,70,VALID,1.10444,
1999-10-25, 00:05:01,VALID,0,VALID,98.6676,VALID,-0.0169808,VALID,18.0666,VALID,81,VALID,1.98067,
1999-10-25, 00:06:00,VALID,0,VALID,98.6447,VALID,-0.0679233,VALID,18.0664,VALID,86,VALID,1.70413,
1999-10-25, 00:07:00,VALID,0,VALID,98.7185,VALID,-0.0509425,VALID,18.0828,VALID,69,VALID,1.04033,
1999-10-25, 00:08:00,VALID,0,VALID,98.7948,VALID,-0.0679233,VALID,18.0793,VALID,136,VALID,0.605374,
1999-10-25, 00:09:00,VALID,0,VALID,98.8978,VALID,-0.0679233,VALID,18.0664,VALID,84,VALID,0.998197,
1999-10-25, 00:10:00,VALID,0,VALID,99.016,VALID,-0.0679233,VALID,18.0692,VALID,84,VALID,0.787729,
1999-10-25, 00:11:00,VALID,0,VALID,99.0656,VALID,-0.0849042,VALID,18.0694,VALID,78,VALID,0.325169,
1999-10-25, 00:12:00,VALID,0,VALID,99.0923,VALID,-0.0339617,VALID,18.0629,VALID,100,VALID,0.999414,
1999-10-25, 00:13:00,VALID,0,VALID,99.0898,VALID,-0.0679233,VALID,18.0401,VALID,79,VALID,0.86287,
1999-10-25, 00:14:00,VALID,0,VALID,99.1,VALID,-0.0679233,VALID,18.0272,VALID,97,VALID,1.14141,
1999-10-25, 00:15:00,VALID,0,VALID,99.0504,VALID,-0.0849042,VALID,18.0211,VALID,91,VALID,1.57381,
1999-10-25, 00:16:01,VALID,0,VALID,98.9957,VALID,-0.0509425,VALID,18.0408,VALID,84,VALID,0.931445,
1999-10-25, 00:17:00,VALID,0,VALID,98.955,VALID,-0.0679233,VALID,18.0373,VALID,85,VALID,0.83347,
1999-10-25, 00:18:00,VALID,0,VALID,98.9715,VALID,-0.0849042,VALID,18.0634,VALID,94,VALID,0.905664,
1999-10-25, 00:19:00,VALID,0,VALID,98.9792,VALID,-0.0849042,VALID,18.0498,VALID,104,VALID,0.918791,
1999-10-25, 00:20:00,VALID,0,VALID,99.0669,VALID,-0.101885,VALID,18.0791,VALID,103,VALID,1.2127,
1999-10-25, 00:21:00,VALID,0,VALID,99.1852,VALID,-0.0849042,VALID,18.1057,VALID,100,VALID,1.32031,
1999-10-25, 00:22:00,VALID,0,VALID,99.1534,VALID,-0.0679233,VALID,18.0791,VALID,84,VALID,1.14453,
1999-10-25, 00:23:00,VALID,0,VALID,99.175,VALID,-0.0679233,VALID,18.0694,VALID,59,VALID,0.708882,
1999-10-25, 00:24:00,VALID,0,VALID,99.1699,VALID,-0.0509425,VALID,18.0597,VALID,77,VALID,0.0605469,
1999-10-25, 00:25:00,VALID,0,VALID,99.1763,VALID,-0.0509425,VALID,18.053,VALID,99,VALID,0.528577,
1999-10-25, 00:26:01,VALID,0,VALID,99.2538,VALID,-0.0339617,VALID,18.0791,VALID,93,VALID,1.58027,
1999-10-25, 00:27:00,VALID,0,VALID,99.292,VALID,-0.0339617,VALID,18.0662,VALID,123,VALID,0.464227,
1999-10-25, 00:28:00,VALID,0,VALID,99.306,VALID,-0.0679233,VALID,18.0826,VALID,83,VALID,0.382813,
1999-10-25, 00:29:00,VALID,0,VALID,99.2932,VALID,-0.0679233,VALID,18.0731,VALID,84,VALID,1.45436,
1999-10-25, 00:30:00,VALID,0,VALID,99.2869,VALID,-0.101885,VALID,18.0567,VALID,101,VALID,0.84082,
1999-10-25, 00:31:00,VALID,0,VALID,99.2793,VALID,-0.0679233,VALID,18.0505,VALID,6,VALID,0.311678,
1999-10-25, 00:32:00,VALID,0,VALID,99.2398,VALID,-0.0849042,VALID,18.0475,VALID,106,VALID,0.975195,
1999-10-25, 00:33:00,VALID,0,VALID,99.2513,VALID,-0.0679233,VALID,18.044,VALID,86,VALID,1.32586,
1999-10-25, 00:34:00,VALID,0,VALID,99.2449,VALID,-0.0679233,VALID,18.0338,VALID,89,VALID,0.946289,
1999-10-25, 00:35:00,VALID,0,VALID,99.1915,VALID,-0.0679233,VALID,18.0343,VALID,96,VALID,0.993215,
1999-10-25, 00:36:00,VALID,0,VALID,99.2513,VALID,-0.0679233,VALID,18.0408,VALID,95,VALID,1.25879,
1999-10-25, 00:37:01,VALID,0,VALID,99.2665,VALID,-0.101885,VALID,18.0371,VALID,23,VALID,0.11287,
1999-10-25, 00:38:01,VALID,0,VALID,99.1788,VALID,-0.101885,VALID,18.0179,VALID,95,VALID,0.775586,
1999-10-25, 00:39:00,VALID,0,VALID,99.1775,VALID,-0.101885,VALID,18.0211,VALID,79,VALID,0.81764,
1999-10-25, 00:40:00,VALID,0,VALID,99.2424,VALID,-0.101885,VALID,18.0475,VALID,102,VALID,0.540234,
1999-10-25, 00:41:00,VALID,0,VALID,99.2538,VALID,-0.0679233,VALID,18.0539,VALID,100,VALID,1.06332,
1999-10-25, 00:42:00,VALID,0,VALID,99.2767,VALID,-0.0679233,VALID,18.0567,VALID,93,VALID,1.42246,
1999-10-25, 00:43:00,VALID,0,VALID,99.2793,VALID,-0.0679233,VALID,18.0502,VALID,105,VALID,0.825863,
1999-10-25, 00:44:00,VALID,0,VALID,99.2831,VALID,0.0169808,VALID,18.0426,VALID,99,VALID,1.34941,
1999-10-25, 00:45:00,VALID,0,VALID,99.3416,VALID,0.0339617,VALID,18.0616,VALID,96,VALID,1.3088,
1999-10-25, 00:46:00,VALID,0,VALID,99.3581,VALID,0,VALID,18.0722,VALID,92,VALID,0.80332,
1999-10-25, 00:47:00,VALID,0,VALID,99.2831,VALID,0.0169808,VALID,18.0431,VALID,60,VALID,0.881168,
1999-10-25, 00:48:01,VALID,0,VALID,99.1826,VALID,0,VALID,18.0138,VALID,13,VALID,0.64043,
1999-10-25, 00:49:01,VALID,0,VALID,99.119,VALID,0.0339617,VALID,17.9877,VALID,33,VALID,0.910567,
1999-10-25, 00:50:00,VALID,0,VALID,98.9881,VALID,0,VALID,17.9784,VALID,303,VALID,0.728125,
1999-10-25, 00:51:00,VALID,0,VALID,98.9753,VALID,0,VALID,17.9886,VALID,96,VALID,1.39844,
1999-10-25, 00:52:00,VALID,0,VALID,98.9982,VALID,0,VALID,18.008,VALID,101,VALID,1.11055,
1999-10-25, 00:53:00,VALID,0,VALID,98.9944,VALID,0.0169808,VALID,17.9909,VALID,97,VALID,1.19901,
1999-10-25, 00:54:00,VALID,0,VALID,98.88,VALID,0.0169808,VALID,17.9849,VALID,84,VALID,1.25371,
1999-10-25, 00:55:00,VALID,0,VALID,98.7859,VALID,0.0169808,VALID,17.9685,VALID,56,VALID,0.465461,
1999-10-25, 00:56:00,VALID,0,VALID,98.7414,VALID,0,VALID,17.9593,VALID,62,VALID,0.410547,
1999-10-25, 00:57:00,VALID,0,VALID,98.6816,VALID,0,VALID,17.9493,VALID,84,VALID,1.61616,
1999-10-25, 00:58:00,VALID,0,VALID,98.6752,VALID,0,VALID,17.956,VALID,88,VALID,1.13691,
1999-10-25, 00:59:00,VALID,0,VALID,98.5811,VALID,0,VALID,17.9357,VALID,86,VALID,1.29626,
1999-10-25, 01:00:01,VALID,0,VALID,98.3192,VALID,0.0509425,VALID,17.9392,VALID,35,VALID,0.837695,
1999-10-25, 01:01:00,VALID,0,VALID,98.1564,VALID,0,VALID,17.9424,VALID,80,VALID,0.75884,
1999-10-25, 01:02:00,VALID,0,VALID,98.2823,VALID,0.0169808,VALID,17.965,VALID,87,VALID,0.942578,
1999-10-25, 01:03:00,VALID,0,VALID,98.3344,VALID,0,VALID,17.9556,VALID,102,VALID,0.498355,
1999-10-25, 01:04:00,VALID,0,VALID,98.4006,VALID,0,VALID,17.9523,VALID,105,VALID,0.141211,
1999-10-25, 01:05:00,VALID,0,VALID,98.4756,VALID,0,VALID,17.9362,VALID,97,VALID,0.461965,
1999-10-25, 01:06:00,VALID,0,VALID,98.5722,VALID,0.0169808,VALID,17.9364,VALID,102,VALID,0.432813,
1999-10-25, 01:07:00,VALID,0,VALID,98.618,VALID,0,VALID,17.9202,VALID,98,VALID,1.12747,
1999-10-25, 01:08:00,VALID,0,VALID,98.7197,VALID,0.0169808,VALID,17.9267,VALID,97,VALID,0.640039,
1999-10-25, 01:09:00,VALID,0,VALID,98.7452,VALID,0,VALID,17.8978,VALID,84,VALID,0.170025,
1999-10-25, 01:10:01,VALID,0,VALID,98.6498,VALID,0.0169808,VALID,17.8681,VALID,62,VALID,0,
1999-10-25, 01:11:01,VALID,0,VALID,98.5939,VALID,0.0169808,VALID,17.8616,VALID,79,VALID,0.627262,
1999-10-25, 01:12:00,VALID,0,VALID,98.3929,VALID,0.0339617,VALID,17.8778,VALID,72,VALID,1.14746,
1999-10-25, 01:13:00,VALID,0,VALID,98.3357,VALID,0.0339617,VALID,17.8942,VALID,95,VALID,0.996916,
1999-10-25, 01:14:00,VALID,0,VALID,98.3306,VALID,0.0509425,VALID,17.8905,VALID,77,VALID,1.06777,
1999-10-25, 01:15:00,VALID,0,VALID,98.0293,VALID,0.0169808,VALID,17.8782,VALID,78,VALID,0.666941,
1999-10-25, 01:16:00,VALID,0,VALID,98.0077,VALID,0,VALID,17.8974,VALID,100,VALID,0.0697266,
1999-10-25, 01:17:00,VALID,0,VALID,97.7915,VALID,0.0169808,VALID,17.8775,VALID,96,VALID,0.531867,
1999-10-25, 01:18:00,VALID,0,VALID,97.7126,VALID,0.0169808,VALID,17.9041,VALID,57,VALID,1.11816,
1999-10-25, 01:19:00,VALID,0,VALID,97.5613,VALID,0.0169808,VALID,17.9103,VALID,41,VALID,0.764186,
1999-10-25, 01:20:00,VALID,0,VALID,97.452,VALID,0.0169808,VALID,17.9138,VALID,29,VALID,0.288477,
1999-10-25, 01:21:01,VALID,0,VALID,97.5066,VALID,0.0509425,VALID,17.9069,VALID,78,VALID,0.0536595,
1999-10-25, 01:22:01,VALID,0,VALID,97.5295,VALID,0.0339617,VALID,17.8942,VALID,3,VALID,0.0636719,
1999-10-25, 01:23:00,VALID,0,VALID,97.5359,VALID,0.0339617,VALID,17.8778,VALID,62,VALID,0.201069,
1999-10-25, 01:24:00,VALID,0,VALID,97.4558,VALID,0,VALID,17.878,VALID,75,VALID,0.305078,
1999-10-25, 01:25:00,VALID,0,VALID,97.5359,VALID,0.0339617,VALID,17.8875,VALID,87,VALID,0.71875,
1999-10-25, 01:26:00,VALID,0,VALID,97.7139,VALID,0.0339617,VALID,17.9105,VALID,69,VALID,0.59043,
1999-10-25, 01:27:00,VALID,0,VALID,97.6262,VALID,0.0339617,VALID,17.8681,VALID,59,VALID,0.5294,
1999-10-25, 01:28:00,VALID,0,VALID,97.5715,VALID,0.0169808,VALID,17.8616,VALID,80,VALID,0.899023,
1999-10-25, 01:29:00,VALID,0,VALID,97.4596,VALID,0.0169808,VALID,17.8782,VALID,92,VALID,1.49712,
1999-10-25, 01:30:00,VALID,0,VALID,97.5702,VALID,0.0169808,VALID,17.911,VALID,87,VALID,1.08438,
1999-10-25, 01:31:00,VALID,0,VALID,97.5232,VALID,0.0509425,VALID,17.8812,VALID,83,VALID,1.02899,
1999-10-25, 01:32:01,VALID,0,VALID,97.5499,VALID,0.0339617,VALID,17.8651,VALID,76,VALID,0.919727,
1999-10-25, 01:33:01,VALID,0,VALID,97.6249,VALID,0,VALID,17.8461,VALID,73,VALID,0.910567,
1999-10-25, 01:34:00,VALID,0,VALID,97.644,VALID,0,VALID,17.8422,VALID,71,VALID,0.591211,
1999-10-25, 01:35:00,VALID,0,VALID,97.5829,VALID,0.0339617,VALID,17.8235,VALID,26,VALID,0.580592,
1999-10-25, 01:36:00,VALID,0,VALID,97.4291,VALID,0,VALID,17.8366,VALID,23,VALID,0.650391,
1999-10-25, 01:37:00,VALID,0,VALID,97.4075,VALID,0,VALID,17.8364,VALID,29,VALID,0.133224,
1999-10-25, 01:38:00,VALID,0,VALID,97.4825,VALID,0,VALID,17.8403,VALID,64,VALID,0.0597656,
1999-10-25, 01:39:00,VALID,0,VALID,97.6351,VALID,0,VALID,17.8494,VALID,83,VALID,0.457648,
1999-10-25, 01:40:00,VALID,0,VALID,97.8258,VALID,0,VALID,17.8558,VALID,94,VALID,0.370313,
1999-10-25, 01:41:00,VALID,0,VALID,97.9644,VALID,0.0169808,VALID,17.8431,VALID,91,VALID,0.0645559,
1999-10-25, 01:42:00,VALID,0,VALID,98.1068,VALID,0.0169808,VALID,17.8332,VALID,92,VALID,0,
1999-10-25, 01:43:00,VALID,0,VALID,98.2251,VALID,-0.0169808,VALID,17.8203,VALID,92,VALID,0,
1999-10-25, 01:44:01,VALID,0,VALID,98.2111,VALID,-0.0849042,VALID,17.7953,VALID,92,VALID,0,
1999-10-25, 01:45:00,VALID,0,VALID,98.3116,VALID,-0.101885,VALID,17.7858,VALID,92,VALID,0,
1999-10-25, 01:46:00,VALID,0,VALID,98.4044,VALID,-0.0849042,VALID,17.7794,VALID,109,VALID,0,
1999-10-25, 01:47:00,VALID,0,VALID,98.4527,VALID,-0.0679233,VALID,17.7796,VALID,103,VALID,0,
1999-10-25, 01:48:00,VALID,0,VALID,98.5277,VALID,-0.0849042,VALID,17.7694,VALID,86,VALID,0,
1999-10-25, 01:49:00,VALID,0,VALID,98.4527,VALID,-0.0679233,VALID,17.7464,VALID,48,VALID,0.585938,
1999-10-25, 01:50:00,VALID,0,VALID,98.295,VALID,-0.0679233,VALID,17.7796,VALID,63,VALID,0.509766,
1999-10-25, 01:51:00,VALID,0,VALID,98.2111,VALID,-0.101885,VALID,17.7957,VALID,54,VALID,0.202303,
1999-10-25, 01:52:00,VALID,0,VALID,98.1145,VALID,-0.0849042,VALID,17.8015,VALID,85,VALID,0.610937,
1999-10-25, 01:53:00,VALID,0,VALID,98.0903,VALID,-0.0679233,VALID,17.8112,VALID,100,VALID,1.0037,
1999-10-25, 01:54:01,VALID,0,VALID,97.9911,VALID,-0.0339617,VALID,17.8278,VALID,77,VALID,1.15234,
1999-10-25, 01:55:01,VALID,0,VALID,97.7203,VALID,-0.0339617,VALID,17.847,VALID,83,VALID,1.29482,
1999-10-25, 01:56:00,VALID,0,VALID,97.3286,VALID,-0.0679233,VALID,17.8759,VALID,79,VALID,1.51992,
1999-10-25, 01:57:00,VALID,0,VALID,97.0247,VALID,-0.0169808,VALID,17.8946,VALID,86,VALID,1.09087,
1999-10-25, 01:58:00,VALID,0,VALID,96.9306,VALID,-0.0509425,VALID,17.9147,VALID,82,VALID,1.36309,
1999-10-25, 01:59:00,VALID,0,VALID,96.6458,VALID,-0.0679233,VALID,17.9179,VALID,86,VALID,1.28084,
1999-10-25, 02:00:00,VALID,0,VALID,96.7475,VALID,-0.0339617,VALID,17.9306,VALID,93,VALID,0.728906,
1999-10-25, 02:01:00,VALID,0,VALID,96.8518,VALID,-0.0679233,VALID,17.9209,VALID,88,VALID,0.0721628,
1999-10-25, 02:02:00,VALID,0,VALID,96.8123,VALID,-0.0509425,VALID,17.902,VALID,95,VALID,0.734375,
1999-10-25, 02:03:00,VALID,0,VALID,96.8009,VALID,-0.0509425,VALID,17.9151,VALID,97,VALID,1.06743,
1999-10-25, 02:04:00,VALID,0,VALID,96.9382,VALID,-0.0509425,VALID,17.9015,VALID,73,VALID,0.701172,
1999-10-25, 02:05:01,VALID,0,VALID,96.7373,VALID,-0.0509425,VALID,17.8791,VALID,80,VALID,0.876439,
1999-10-25, 02:06:01,VALID,0,VALID,96.7831,VALID,-0.0679233,VALID,17.8787,VALID,56,VALID,0.552148,
1999-10-25, 02:07:00,VALID,0,VALID,96.731,VALID,-0.0849042,VALID,17.8666,VALID,52,VALID,0.271382,
1999-10-25, 02:08:00,VALID,0,VALID,96.8162,VALID,-0.0679233,VALID,17.8636,VALID,63,VALID,0.04375,
1999-10-25, 02:09:00,VALID,0,VALID,96.7958,VALID,-0.0509425,VALID,17.8403,VALID,89,VALID,0.988692,
1999-10-25, 02:10:00,VALID,0,VALID,96.7704,VALID,-0.0849042,VALID,17.8766,VALID,95,VALID,1.47988,
1999-10-25, 02:11:00,VALID,0,VALID,96.82,VALID,-0.0509425,VALID,17.8701,VALID,84,VALID,1.31456,
1999-10-25, 02:12:00,VALID,0,VALID,96.9281,VALID,-0.0339617,VALID,17.8472,VALID,93,VALID,1.14863,
1999-10-25, 02:13:00,VALID,0,VALID,97.1137,VALID,-0.101885,VALID,17.8147,VALID,94,VALID,1.36534,
1999-10-25, 02:14:00,VALID,0,VALID,97.0717,VALID,-0.0339617,VALID,17.7985,VALID,81,VALID,1.55879,
1999-10-25, 02:15:00,VALID,0,VALID,97.026,VALID,-0.0849042,VALID,17.8147,VALID,85,VALID,1.79256,
1999-10-25, 02:16:01,VALID,0,VALID,96.7424,VALID,-0.101885,VALID,17.8341,VALID,93,VALID,1.67441,
1999-10-25, 02:17:01,VALID,0,VALID,96.6292,VALID,-0.0339617,VALID,17.877,VALID,93,VALID,1.81579,
1999-10-25, 02:18:00,VALID,0,VALID,96.7589,VALID,-0.0679233,VALID,17.8729,VALID,98,VALID,1.48984,
1999-10-25, 02:19:00,VALID,0,VALID,96.5097,VALID,-0.0679233,VALID,17.8567,VALID,84,VALID,1.48191,
1999-10-25, 02:20:00,VALID,0,VALID,96.5822,VALID,-0.0339617,VALID,17.8565,VALID,65,VALID,0.45918,
1999-10-25, 02:21:00,VALID,0,VALID,96.572,VALID,-0.0679233,VALID,17.8509,VALID,77,VALID,0.741571,
1999-10-25, 02:22:00,VALID,0,VALID,96.5072,VALID,-0.0679233,VALID,17.8505,VALID,92,VALID,1.32246,
1999-10-25, 02:23:00,VALID,0,VALID,96.6623,VALID,-0.0339617,VALID,17.8671,VALID,84,VALID,1.09683,
1999-10-25, 02:24:00,VALID,0,VALID,96.3596,VALID,-0.0849042,VALID,17.8634,VALID,45,VALID,0.690625,
1999-10-25, 02:25:00,VALID,0,VALID,96.1715,VALID,-0.0849042,VALID,17.8962,VALID,85,VALID,1.19655,
1999-10-25, 02:26:00,VALID,0,VALID,96.2605,VALID,-0.0849042,VALID,17.899,VALID,95,VALID,0.0666016,
1999-10-25, 02:27:00,VALID,0,VALID,96.0646,VALID,-0.101885,VALID,17.8858,VALID,359,VALID,0.669819,
1999-10-25, 02:28:00,VALID,0,VALID,96.0112,VALID,-0.0679233,VALID,17.9186,VALID,84,VALID,1.84805,
1999-10-25, 02:29:00,VALID,0,VALID,95.8472,VALID,-0.0679233,VALID,17.9537,VALID,70,VALID,1.4116,
1999-10-25, 02:30:00,VALID,0,VALID,95.8205,VALID,-0.0849042,VALID,17.9509,VALID,53,VALID,0.511914,
1999-10-25, 02:31:00,VALID,0,VALID,95.9693,VALID,-0.101885,VALID,17.944,VALID,89,VALID,1.78783,
1999-10-25, 02:32:00,VALID,0,VALID,96.0341,VALID,-0.0679233,VALID,17.9343,VALID,65,VALID,1.15937,
1999-10-25, 02:33:00,VALID,0,VALID,96.1969,VALID,-0.0679233,VALID,17.9348,VALID,80,VALID,1.18668,
1999-10-25, 02:34:00,VALID,0,VALID,96.366,VALID,-0.0509425,VALID,17.9211,VALID,96,VALID,1.31367,
1999-10-25, 02:35:00,VALID,0,VALID,96.6152,VALID,-0.0509425,VALID,17.9184,VALID,87,VALID,1.50863,
1999-10-25, 02:36:00,VALID,0,VALID,96.717,VALID,-0.0339617,VALID,17.8793,VALID,89,VALID,1.55039,
1999-10-25, 02:37:01,VALID,0,VALID,96.8251,VALID,-0.0849042,VALID,17.8694,VALID,82,VALID,1.36493,
1999-10-25, 02:38:01,VALID,0,VALID,96.8759,VALID,-0.0849042,VALID,17.8669,VALID,84,VALID,0.842383,
1999-10-25, 02:39:00,VALID,0,VALID,97.1569,VALID,-0.101885,VALID,17.8604,VALID,101,VALID,0.216488,
1999-10-25, 02:40:00,VALID,0,VALID,97.3006,VALID,-0.0849042,VALID,17.8505,VALID,85,VALID,0.599414,
1999-10-25, 02:41:00,VALID,0,VALID,97.4888,VALID,-0.0849042,VALID,17.8309,VALID,92,VALID,0.663446,
1999-10-25, 02:42:00,VALID,0,VALID,97.663,VALID,-0.0509425,VALID,17.8119,VALID,94,VALID,1.10625,
1999-10-25, 02:43:00,VALID,0,VALID,97.733,VALID,-0.0679233,VALID,17.7891,VALID,99,VALID,1.50041,
1999-10-25, 02:44:00,VALID,0,VALID,97.8309,VALID,0,VALID,17.7974,VALID,102,VALID,1.02148,
1999-10-25, 02:45:00,VALID,0,VALID,97.8779,VALID,0.0169808,VALID,17.7907,VALID,92,VALID,1.26953,
1999-10-25, 02:46:00,VALID,0,VALID,97.9212,VALID,0.0169808,VALID,17.7974,VALID,99,VALID,1.77285,
1999-10-25, 02:47:00,VALID,0,VALID,97.8932,VALID,0,VALID,17.7944,VALID,95,VALID,1.0442,
1999-10-25, 02:48:01,VALID,0,VALID,97.6529,VALID,0.0169808,VALID,17.8039,VALID,27,VALID,0.304492,
1999-10-25, 02:49:01,VALID,0,VALID,97.5956,VALID,0,VALID,17.8133,VALID,278,VALID,0.221423,
1999-10-25, 02:50:00,VALID,0,VALID,97.6491,VALID,0,VALID,17.8168,VALID,86,VALID,0.905859,
1999-10-25, 02:51:00,VALID,0,VALID,97.5486,VALID,0,VALID,17.823,VALID,93,VALID,0.954564,
1999-10-25, 02:52:00,VALID,0,VALID,97.4024,VALID,0.0509425,VALID,17.8524,VALID,122,VALID,0.525977,
1999-10-25, 02:53:00,VALID,0,VALID,97.555,VALID,0,VALID,17.8784,VALID,93,VALID,1.55777,
1999-10-25, 02:54:00,VALID,0,VALID,97.5867,VALID,0.0339617,VALID,17.8718,VALID,100,VALID,1.2332,
1999-10-25, 02:55:00,VALID,0,VALID,97.6961,VALID,0.0509425,VALID,17.875,VALID,101,VALID,0.891447,
1999-10-25, 02:56:00,VALID,0,VALID,97.7393,VALID,0,VALID,17.8556,VALID,92,VALID,1.25898,
1999-10-25, 02:57:00,VALID,0,VALID,97.5689,VALID,0.0169808,VALID,17.8554,VALID,85,VALID,1.50021,
1999-10-25, 02:58:00,VALID,0,VALID,97.4621,VALID,0,VALID,17.902,VALID,70,VALID,0.872997,
1999-10-25, 02:59:00,VALID,0,VALID,97.4138,VALID,-0.0849042,VALID,17.8927,VALID,86,VALID,0.829153,
1999-10-25, 03:00:01,VALID,0,VALID,97.4253,VALID,-0.0679233,VALID,17.8992,VALID,100,VALID,0.764063,
1999-10-25, 03:01:00,VALID,0,VALID,97.4825,VALID,-0.0849042,VALID,17.8925,VALID,97,VALID,0.945313,
1999-10-25, 03:02:00,VALID,0,VALID,97.5626,VALID,-0.0849042,VALID,17.9059,VALID,97,VALID,0.949219,
1999-10-25, 03:03:00,VALID,0,VALID,97.5117,VALID,-0.0849042,VALID,17.8833,VALID,76,VALID,0.798314,
1999-10-25, 03:04:00,VALID,0,VALID,97.4939,VALID,-0.0679233,VALID,17.8897,VALID,82,VALID,0.699219,
1999-10-25, 03:05:00,VALID,0,VALID,97.5041,VALID,-0.101885,VALID,17.8996,VALID,102,VALID,0.83676,
1999-10-25, 03:06:00,VALID,0,VALID,97.5079,VALID,-0.101885,VALID,17.9031,VALID,126,VALID,0.545117,
1999-10-25, 03:07:00,VALID,0,VALID,97.4837,VALID,-0.0849042,VALID,17.9061,VALID,80,VALID,0.953536,
1999-10-25, 03:08:00,VALID,0,VALID,97.1684,VALID,-0.0849042,VALID,17.9216,VALID,101,VALID,0.838281,
1999-10-25, 03:09:00,VALID,0,VALID,97.2841,VALID,-0.0849042,VALID,17.9539,VALID,120,VALID,0.446135,
1999-10-25, 03:10:01,VALID,0,VALID,97.3553,VALID,-0.101885,VALID,17.9475,VALID,155,VALID,0,
1999-10-25, 03:11:00,VALID,0,VALID,97.4113,VALID,-0.101885,VALID,17.9511,VALID,150,VALID,0,
1999-10-25, 03:12:00,VALID,0,VALID,97.6427,VALID,-0.101885,VALID,17.9539,VALID,101,VALID,0.642969,
1999-10-25, 03:13:00,VALID,0,VALID,97.8284,VALID,-0.118866,VALID,17.9546,VALID,96,VALID,0.231908,
1999-10-25, 03:14:00,VALID,0,VALID,97.9161,VALID,0,VALID,17.9302,VALID,87,VALID,0.236523,
1999-10-25, 03:15:00,VALID,0,VALID,97.9504,VALID,0.0169808,VALID,17.9235,VALID,105,VALID,0.481702,
1999-10-25, 03:16:00,VALID,0,VALID,97.9479,VALID,0,VALID,17.9205,VALID,98,VALID,0.489258,
1999-10-25, 03:17:00,VALID,0,VALID,97.9835,VALID,0.0169808,VALID,17.9101,VALID,102,VALID,0.460526,
1999-10-25, 03:18:00,VALID,0,VALID,97.9034,VALID,0.0339617,VALID,17.9039,VALID,92,VALID,0.969727,
1999-10-25, 03:19:00,VALID,0,VALID,97.9123,VALID,0.0339617,VALID,17.9172,VALID,90,VALID,1.05757,
1999-10-25, 03:20:00,VALID,0,VALID,97.9275,VALID,0.0339617,VALID,17.926,VALID,73,VALID,0.305273,
1999-10-25, 03:21:01,VALID,0,VALID,97.8881,VALID,0.0509425,VALID,17.9228,VALID,66,VALID,0.0359786,
1999-10-25, 03:22:01,VALID,0,VALID,97.9288,VALID,0.0169808,VALID,17.9233,VALID,86,VALID,0.0462891,
1999-10-25, 03:23:00,VALID,0,VALID,97.9797,VALID,0,VALID,17.9366,VALID,104,VALID,0.0242599,
1999-10-25, 03:24:00,VALID,0,VALID,97.911,VALID,0.0169808,VALID,17.9461,VALID,96,VALID,0.235938,
1999-10-25, 03:25:00,VALID,0,VALID,97.7813,VALID,0.0509425,VALID,17.956,VALID,91,VALID,0.509663,
1999-10-25, 03:26:00,VALID,0,VALID,97.78,VALID,0.0339617,VALID,17.9521,VALID,81,VALID,0.199219,
1999-10-25, 03:27:00,VALID,0,VALID,97.5244,VALID,0.0339617,VALID,17.9459,VALID,72,VALID,0.905428,
1999-10-25, 03:28:00,VALID,0,VALID,97.3515,VALID,0.0169808,VALID,17.9946,VALID,88,VALID,1.28457,
1999-10-25, 03:29:00,VALID,0,VALID,97.4265,VALID,0.0339617,VALID,18.0332,VALID,92,VALID,1.07319,
1999-10-25, 03:30:00,VALID,0,VALID,97.5372,VALID,0.0679233,VALID,18.0394,VALID,80,VALID,0.0722656,
1999-10-25, 03:31:00,VALID,0,VALID,97.6134,VALID,0.0679233,VALID,18.0332,VALID,96,VALID,0,
1999-10-25, 03:32:01,VALID,0,VALID,97.6694,VALID,0.0679233,VALID,18.0299,VALID,107,VALID,0.612109,
1999-10-25, 03:33:01,VALID,0,VALID,97.7749,VALID,0.0339617,VALID,18.0362,VALID,98,VALID,1.02262,
1999-10-25, 03:34:00,VALID,0,VALID,97.9212,VALID,0.0169808,VALID,18.0364,VALID,94,VALID,1.38164,
1999-10-25, 03:35:00,VALID,0,VALID,97.8907,VALID,0.0339617,VALID,18.0336,VALID,87,VALID,0.218339,
1999-10-25, 03:36:00,VALID,0,VALID,97.8245,VALID,0.0169808,VALID,18.0366,VALID,87,VALID,0.665234,
1999-10-25, 03:37:00,VALID,0,VALID,97.9352,VALID,0.0339617,VALID,18.0627,VALID,92,VALID,1.47183,
1999-10-25, 03:38:00,VALID,0,VALID,97.8563,VALID,0,VALID,18.0461,VALID,88,VALID,1.3125,
1999-10-25, 03:39:00,VALID,0,VALID,97.6694,VALID,0.0169808,VALID,18.0362,VALID,87,VALID,1.46587,
1999-10-25, 03:40:00,VALID,0,VALID,97.5232,VALID,0,VALID,18.0399,VALID,79,VALID,1.82441,
1999-10-25, 03:41:00,VALID,0,VALID,97.321,VALID,0.0169808,VALID,18.0657,VALID,69,VALID,1.09231,
1999-10-25, 03:42:00,VALID,0,VALID,97.4113,VALID,0.0339617,VALID,18.0627,VALID,73,VALID,0.55293,
1999-10-25, 03:43:00,VALID,0,VALID,97.4265,VALID,0,VALID,18.0496,VALID,92,VALID,0.37685,
1999-10-25, 03:44:01,VALID,0,VALID,97.6491,VALID,0,VALID,18.0461,VALID,96,VALID,0.707031,
1999-10-25, 03:45:00,VALID,0,VALID,97.85,VALID,0,VALID,18.0429,VALID,93,VALID,1.63692,
1999-10-25, 03:46:00,VALID,0,VALID,97.883,VALID,0,VALID,18.0265,VALID,91,VALID,1.46426,
1999-10-25, 03:47:00,VALID,0,VALID,97.9097,VALID,0,VALID,18.0071,VALID,94,VALID,1.32175,
1999-10-25, 03:48:00,VALID,0,VALID,97.9898,VALID,0,VALID,18.0237,VALID,106,VALID,0.294336,
1999-10-25, 03:49:00,VALID,0,VALID,98.0878,VALID,0.0169808,VALID,18.0265,VALID,102,VALID,0.589844,
1999-10-25, 03:50:00,VALID,0,VALID,98.1742,VALID,0,VALID,18.0371,VALID,105,VALID,0.681836,
1999-10-25, 03:51:00,VALID,0,VALID,98.2454,VALID,0,VALID,18.0302,VALID,93,VALID,0.646587,
1999-10-25, 03:52:00,VALID,0,VALID,98.3179,VALID,0.0509425,VALID,18.0232,VALID,102,VALID,0.692187,
1999-10-25, 03:53:00,VALID,0,VALID,98.3535,VALID,0.0169808,VALID,18.0401,VALID,101,VALID,0.464227,
1999-10-25, 03:54:01,VALID,0,VALID,98.309,VALID,0,VALID,18.0426,VALID,98,VALID,0.87832,
1999-10-25, 03:55:00,VALID,0,VALID,98.2747,VALID,0,VALID,18.056,VALID,94,VALID,0.850535,
1999-10-25, 03:56:00,VALID,0,VALID,98.3154,VALID,0.0169808,VALID,18.0786,VALID,96,VALID,1.13398,
1999-10-25, 03:57:00,VALID,0,VALID,98.2696,VALID,0,VALID,18.0883,VALID,91,VALID,0.990748,
1999-10-25, 03:58:00,VALID,0,VALID,98.2391,VALID,0,VALID,18.0849,VALID,88,VALID,1.02305,
1999-10-25, 03:59:00,VALID,0,VALID,98.2683,VALID,0,VALID,18.0851,VALID,93,VALID,1.19058,
1999-10-25, 04:00:00,VALID,0,VALID,98.2899,VALID,0,VALID,18.0685,VALID,91,VALID,1.70215,
1999-10-25, 04:01:00,VALID,0,VALID,98.1285,VALID,0,VALID,18.059,VALID,90,VALID,1.44757,
1999-10-25, 04:02:00,VALID,0,VALID,97.9924,VALID,0,VALID,18.072,VALID,37,VALID,0.855859,
1999-10-25, 04:03:00,VALID,0,VALID,97.9161,VALID,0.0339617,VALID,18.1041,VALID,90,VALID,0.709087,
1999-10-25, 04:04:00,VALID,0,VALID,97.8423,VALID,0.0169808,VALID,18.1168,VALID,106,VALID,0.589844,
1999-10-25, 04:05:01,VALID,0,VALID,97.8449,VALID,0.0169808,VALID,18.1338,VALID,153,VALID,0.101563,
1999-10-25, 04:06:01,VALID,0,VALID,97.9352,VALID,0,VALID,18.1366,VALID,138,VALID,0.199805,